[[{"header":{"parameterUnit":"m.s-1","parameterCategory":1,"la1":30.2991,"la2":30.254,"lo1":-89.0895,"lo2":-89.0444,"dy":0.0017,"dx":0.0017,"nx":28,"ny":28,"refTime":"2023-10-31T03:00:00:Z","depth":0,"parameterNumber":2,"parameterNumberName":"U-component_of_WINDS"},"data":[0,0,0,0,0,0,0,0,0,0,0,0,0,0,0,0,0,0,0,0,0,0,0,0,0,0,0,0,0,0,0,0,0,0,0,0,0,0,0,0,0,0,0,0,0,0,0,0,0,0,0,0,0,0,0,0,0,0,-1.1853,-1.1853,0,-1.1883,-1.1883,-1.1884,-1.1866,-1.1866,-1.1865,-1.1864,-1.1895,-1.1896,-1.1898,0,0,0,0,0,0,0,0,0,0,0,0,0,-1.1779,-1.178,-1.1853,-1.1853,-1.1853,-1.1883,-1.1883,-1.1884,-1.1867,-1.1866,-1.1864,-1.1864,-1.1894,-1.1896,-1.1898,0,0,0,0,0,0,0,0,0,0,0,0,0,-1.181,-1.1781,-1.1853,-1.1848,-1.1848,-1.1883,-1.1883,-1.1884,-1.1867,-1.1866,-1.1864,-1.1863,-1.1894,-1.1896,-1.1898,-1.1939,0,0,-1.1906,-1.1907,0,0,0,0,0,0,0,0,-1.1808,-1.1813,-1.1849,-1.1849,-1.1849,-1.187,-1.1869,-1.1902,-1.1867,-1.186,-1.1864,-1.1862,-1.1887,-1.189,-1.1899,-1.194,-1.1941,-1.1906,-1.1907,-1.1908,-1.1909,0,0,0,0,0,0,0,-1.1806,-1.1811,-1.1865,-1.1849,-1.1849,-1.1845,-1.1848,-1.1875,-1.188,-1.186,-1.1859,-1.1863,-1.1887,-1.1896,-1.1899,-1.1942,-1.1906,-1.1908,-1.1909,-1.191,-1.2017,-1.2018,0,0,0,0,0,0,-1.1804,-1.181,-1.1864,-1.1866,-1.1825,-1.1847,-1.185,-1.1864,-1.188,-1.1881,-1.1864,-1.1862,-1.1893,-1.1896,-1.19,-1.1949,-1.1908,-1.1911,-1.1912,-1.2016,-1.2017,-1.2019,0,0,0,0,0,0,-1.1803,-1.1809,-1.1862,-1.1837,-1.1844,-1.185,-1.1865,-1.1865,-1.1875,-1.1883,-1.1884,-1.1873,-1.1892,-1.1897,-1.1929,-1.1949,-1.1912,-1.1914,-1.2014,-1.2016,-1.2018,-1.2045,0,0,0,0,0,0,-1.1801,-1.1809,-1.1825,-1.1838,-1.1845,-1.1891,-1.1866,-1.1867,-1.1879,-1.1877,-1.1891,-1.1892,-1.1891,-1.1926,-1.1931,-1.1952,-1.1916,-1.2012,-1.2015,-1.2018,-1.2043,-1.2048,-1.2053,0,0,0,0,0,-1.1798,-1.1831,-1.1826,-1.1832,-1.1865,-1.1892,-1.1897,-1.1895,-1.1881,-1.1896,-1.1901,-1.1892,-1.1946,-1.1929,-1.1936,-1.1957,-1.2011,-1.2014,-1.2017,-1.204,-1.2047,-1.2053,0,0,0,0,0,0,-1.182,-1.1833,-1.1827,-1.1865,-1.1878,-1.1889,-1.1909,-1.1902,-1.1919,-1.1917,-1.1914,-1.1917,-1.1951,-1.1957,-1.1938,-1.1997,-1.1976,-1.1981,-1.1992,-1.1998,-1.2003,-1.2001,-1.1918,0,0,0,0,0,-1.1829,-1.1851,-1.1861,-1.1893,-1.19,-1.1904,-1.1915,-1.1913,-1.1926,-1.1932,-1.1939,-1.1952,-1.1972,-1.1985,-1.2004,-1.2043,-1.2046,-1.2061,-1.2066,-1.207,-1.2074,-1.2095,-1.2102,-1.2029,-1.2029,-1.2029,0,0,-1.1849,-1.1858,-1.1872,-1.1898,-1.1908,-1.193,-1.1908,-1.1933,-1.1949,-1.1935,-1.1966,-1.1972,-1.1986,-1.2022,-1.2038,-1.2028,-1.2095,-1.2074,-1.2077,-1.2079,-1.2099,-1.2106,-1.2113,-1.2031,-1.2031,-1.2031,0,0,-1.1896,-1.1905,-1.1933,-1.1943,-1.1958,-1.196,-1.1967,-1.1979,-1.1983,-1.2014,-1.2004,-1.2023,-1.2057,-1.2068,-1.2078,-1.2127,-1.2119,-1.2133,-1.216,-1.2181,-1.2186,-1.2192,-1.221,-1.2216,-1.2137,-1.2137,-1.2138,0,-1.1918,-1.1951,-1.1949,-1.1974,-1.1985,-1.1974,-1.2002,-1.2012,-1.2032,-1.204,-1.2028,-1.2071,-1.208,-1.2118,-1.213,-1.2138,-1.2146,-1.2132,-1.2186,-1.2191,-1.2196,-1.2213,-1.222,-1.2139,-1.2139,-1.2139,-1.2139,0,-1.1978,-1.2001,-1.2022,-1.2042,-1.2056,-1.2082,-1.2083,-1.2097,-1.2093,-1.2097,-1.2128,-1.2138,-1.2158,-1.2167,-1.2163,-1.2205,-1.2198,-1.2186,-1.2166,-1.2204,-1.222,-1.2227,-1.2142,-1.2141,-1.214,-1.214,0,0,-1.2041,-1.2058,-1.2066,-1.2075,-1.209,-1.2108,-1.2133,-1.2153,-1.2165,-1.2179,-1.2201,-1.223,-1.2219,-1.223,-1.2227,-1.2245,-1.2284,-1.2231,-1.2231,-1.2241,-1.233,-1.2339,-1.2347,-1.2278,-1.2279,-1.228,-1.2329,0,-1.2089,-1.2135,-1.2132,-1.2175,-1.2196,-1.2185,-1.2207,-1.2218,-1.2222,-1.224,-1.2243,-1.2264,-1.2247,-1.2254,-1.2271,-1.2276,-1.2302,-1.2272,-1.2298,-1.2299,-1.2296,-1.2355,-1.2365,-1.2411,-1.2335,-1.2336,-1.2337,0,-1.2152,-1.2168,-1.2213,-1.2224,-1.2233,-1.2253,-1.2271,-1.2288,-1.2301,-1.2302,-1.2314,-1.2308,-1.2334,-1.2312,-1.2347,-1.2327,-1.2337,-1.234,-1.2342,-1.2345,-1.2321,-1.2361,-1.2425,-1.2432,-1.2347,-1.2346,-1.2345,0,-1.2194,-1.2226,-1.2257,-1.2265,-1.2279,-1.2294,-1.23,-1.2311,-1.2323,-1.2338,-1.2346,-1.2364,-1.2374,-1.2388,-1.2387,-1.2371,-1.2423,-1.2401,-1.2425,-1.2425,-1.2437,-1.2436,-1.2505,-1.2442,-1.2442,-1.2442,-1.2442,0,-1.2248,-1.2276,-1.2276,-1.2296,-1.2326,-1.2323,-1.2353,-1.2358,-1.2368,-1.2387,-1.2378,-1.2396,-1.2394,-1.2412,-1.2411,-1.2441,-1.2445,-1.2446,-1.2446,-1.2448,-1.2448,-1.2455,-1.2452,-1.2444,-1.2443,-1.2443,-1.2443,0,-1.2301,-1.2302,-1.2335,-1.2345,-1.2349,-1.2371,-1.2379,-1.2397,-1.2399,-1.2424,-1.243,-1.2433,-1.2454,-1.2454,-1.2478,-1.2477,-1.2513,-1.2509,-1.2509,-1.2509,-1.2532,-1.253,-1.2609,-1.2619,-1.2549,-1.255,-1.255,0,-1.2336,-1.2357,-1.237,-1.2382,-1.239,-1.241,-1.2422,-1.2419,-1.2432,-1.2447,-1.2463,-1.2483,-1.25,-1.2534,-1.2538,-1.2556,-1.2552,-1.2578,-1.2555,-1.2556,-1.2553,-1.2552,-1.2555,-1.2583,-1.2584,-1.2585,-1.2585,0,-1.2399,-1.2398,-1.2416,-1.2434,-1.2449,-1.2463,-1.2476,-1.2486,-1.2485,-1.25,-1.2521,-1.2534,-1.2558,-1.2578,-1.2596,-1.2602,-1.2594,-1.2592,-1.2599,-1.2602,-1.2601,-1.2602,-1.2523,-1.2591,-1.259,-1.259,-1.259,-1.259,-1.2444,-1.2462,-1.2474,-1.2494,-1.2503,-1.2516,-1.2533,-1.2537,-1.2555,-1.2574,-1.2571,-1.2595,-1.2606,-1.2629,-1.2636,-1.2655,-1.2646,-1.2655,-1.2657,-1.266,-1.2663,-1.2597,-1.2658,-1.2658,-1.2657,-1.2657,-1.2657,0,-1.2506,-1.2513,-1.2532,-1.255,-1.2566,-1.2556,-1.257,-1.2584,-1.2605,-1.2616,-1.2632,-1.2656,-1.2675,-1.2681,-1.2699,-1.2713,-1.2709,-1.2718,-1.2717,-1.2719,-1.267,-1.2663,-1.272,-1.272,-1.272,-1.272,-1.272,-1.272,-1.2541,-1.2571,-1.2572,-1.2607,-1.2613,-1.2636,-1.2645,-1.2656,-1.2665,-1.2693,-1.2708,-1.2712,-1.272,-1.2739,-1.2756,-1.2757,-1.2765,-1.2775,-1.2774,-1.2729,-1.2722,-1.2716,-1.2709,-1.2776,-1.2776,-1.2822,-1.2822,-1.2822]},{"header":{"parameterUnit":"m.s-1","parameterCategory":1,"la1":30.2991,"la2":30.254,"lo1":-89.0895,"lo2":-89.0444,"dy":0.0017,"dx":0.0017,"nx":28,"ny":28,"refTime":"2023-10-31T03:00:00:Z","depth":0,"parameterNumber":3,"parameterNumberName":"V-component_of_WINDS"},"data":[0,0,0,0,0,0,0,0,0,0,0,0,0,0,0,0,0,0,0,0,0,0,0,0,0,0,0,0,0,0,0,0,0,0,0,0,0,0,0,0,0,0,0,0,0,0,0,0,0,0,0,0,0,0,0,0,0,0,-7.2896,-7.2896,0,-7.2984,-7.2985,-7.2986,-7.2939,-7.2937,-7.2934,-7.2932,-7.3016,-7.3021,-7.3025,0,0,0,0,0,0,0,0,0,0,0,0,0,-7.2681,-7.2685,-7.2895,-7.2897,-7.2898,-7.2984,-7.2985,-7.2986,-7.2939,-7.2937,-7.2934,-7.2931,-7.3015,-7.302,-7.3026,0,0,0,0,0,0,0,0,0,0,0,0,0,-7.2772,-7.2686,-7.2895,-7.2885,-7.2885,-7.2984,-7.2985,-7.2987,-7.294,-7.2936,-7.2933,-7.293,-7.3013,-7.302,-7.3026,-7.3138,0,0,-7.3047,-7.305,0,0,0,0,0,0,0,0,-7.2767,-7.278,-7.2885,-7.2886,-7.2886,-7.2947,-7.294,-7.3037,-7.2941,-7.2919,-7.2932,-7.2928,-7.2996,-7.3004,-7.3028,-7.3142,-7.3146,-7.3047,-7.3051,-7.3054,-7.3056,0,0,0,0,0,0,0,-7.2761,-7.2776,-7.293,-7.2887,-7.2887,-7.2874,-7.2883,-7.2958,-7.2976,-7.2921,-7.2917,-7.2929,-7.2995,-7.3022,-7.3029,-7.3147,-7.3047,-7.3053,-7.3057,-7.306,-7.3359,-7.3363,0,0,0,0,0,0,-7.2756,-7.2771,-7.2927,-7.2933,-7.2817,-7.2881,-7.2891,-7.2931,-7.2975,-7.2978,-7.2932,-7.2926,-7.3012,-7.3022,-7.3032,-7.3168,-7.3054,-7.306,-7.3064,-7.3355,-7.336,-7.3364,0,0,0,0,0,0,-7.2751,-7.277,-7.2924,-7.2851,-7.287,-7.2888,-7.2933,-7.2934,-7.2961,-7.2984,-7.2986,-7.2956,-7.3009,-7.3023,-7.3113,-7.317,-7.3063,-7.307,-7.3351,-7.3357,-7.3362,-7.3439,0,0,0,0,0,0,-7.2745,-7.2769,-7.2813,-7.2853,-7.2874,-7.3005,-7.2937,-7.2939,-7.2973,-7.2967,-7.3007,-7.301,-7.3008,-7.3103,-7.312,-7.3177,-7.3075,-7.3346,-7.3353,-7.336,-7.3431,-7.3446,-7.3459,0,0,0,0,0,-7.2738,-7.2829,-7.2815,-7.2834,-7.293,-7.3008,-7.302,-7.3018,-7.2978,-7.3022,-7.3036,-7.3009,-7.3161,-7.3113,-7.3131,-7.3191,-7.3342,-7.3351,-7.336,-7.3425,-7.3443,-7.3459,0,0,0,0,0,0,-7.2792,-7.2834,-7.2819,-7.2926,-7.2965,-7.3,-7.3055,-7.3037,-7.3086,-7.3078,-7.3071,-7.308,-7.3174,-7.3191,-7.3137,-7.3303,-7.3245,-7.3258,-7.3288,-7.3306,-7.332,-7.3314,-7.308,0,0,0,0,0,-7.2818,-7.288,-7.2912,-7.3003,-7.3024,-7.3037,-7.3071,-7.3066,-7.3104,-7.3119,-7.3141,-7.3177,-7.3234,-7.327,-7.3323,-7.3433,-7.3441,-7.3483,-7.3497,-7.3509,-7.352,-7.3581,-7.36,-7.3394,-7.3393,-7.3393,0,0,-7.2869,-7.2899,-7.2939,-7.3015,-7.3044,-7.3108,-7.305,-7.3119,-7.3166,-7.3129,-7.3217,-7.3234,-7.3274,-7.3375,-7.342,-7.3392,-7.3579,-7.352,-7.3529,-7.3535,-7.3592,-7.3611,-7.3629,-7.34,-7.3399,-7.3398,0,0,-7.2996,-7.3025,-7.3105,-7.3136,-7.3182,-7.319,-7.321,-7.3249,-7.326,-7.3348,-7.3322,-7.3376,-7.3473,-7.3503,-7.3531,-7.3671,-7.3648,-7.3688,-7.3763,-7.3822,-7.3838,-7.3852,-7.3903,-7.3921,-7.37,-7.37,-7.37,0,-7.3053,-7.315,-7.3148,-7.3221,-7.3255,-7.3227,-7.3308,-7.3337,-7.3397,-7.342,-7.3388,-7.3511,-7.3535,-7.3644,-7.3678,-7.3702,-7.3723,-7.3684,-7.3836,-7.3851,-7.3864,-7.3912,-7.3931,-7.3704,-7.3704,-7.3703,-7.3703,0,-7.3219,-7.3287,-7.3346,-7.3408,-7.3448,-7.3524,-7.3533,-7.3574,-7.3566,-7.3577,-7.3667,-7.3696,-7.3756,-7.378,-7.3772,-7.3888,-7.3869,-7.3837,-7.3779,-7.3888,-7.3934,-7.3952,-7.3711,-7.371,-7.3708,-7.3707,0,0,-7.3382,-7.3444,-7.3465,-7.3494,-7.3543,-7.3594,-7.3669,-7.3729,-7.3765,-7.3807,-7.3869,-7.3952,-7.3924,-7.3955,-7.395,-7.4001,-7.4112,-7.3963,-7.3963,-7.399,-7.4243,-7.4268,-7.4289,-7.4096,-7.41,-7.4103,-7.424,0,-7.3513,-7.3647,-7.3648,-7.377,-7.3832,-7.3807,-7.3872,-7.3908,-7.3921,-7.3974,-7.3987,-7.4047,-7.4004,-7.4023,-7.4073,-7.4088,-7.4163,-7.4078,-7.4153,-7.4156,-7.4145,-7.4313,-7.4339,-7.4467,-7.4257,-7.426,-7.4262,0,-7.3684,-7.3735,-7.3865,-7.3906,-7.3932,-7.3991,-7.4047,-7.4099,-7.4139,-7.4145,-7.4182,-7.4169,-7.4243,-7.4183,-7.4286,-7.4229,-7.4259,-7.4271,-7.4276,-7.4284,-7.4216,-7.4325,-7.4507,-7.4527,-7.429,-7.4288,-7.4286,0,-7.3791,-7.3892,-7.3983,-7.4008,-7.4058,-7.4101,-7.4123,-7.416,-7.4197,-7.4245,-7.4269,-7.4324,-7.4354,-7.4396,-7.4398,-7.4354,-7.4502,-7.4442,-7.4508,-7.4508,-7.4541,-7.4539,-7.4731,-7.4559,-7.4559,-7.4559,-7.4558,0,-7.3938,-7.4018,-7.4033,-7.4089,-7.4178,-7.4177,-7.4265,-7.4283,-7.4317,-7.4375,-7.4355,-7.4409,-7.4408,-7.4463,-7.4465,-7.455,-7.4563,-7.4569,-7.4569,-7.4572,-7.4571,-7.4592,-7.4584,-7.4564,-7.4563,-7.4562,-7.4561,0,-7.4073,-7.4086,-7.4184,-7.4225,-7.4237,-7.4301,-7.4335,-7.4388,-7.4399,-7.4473,-7.449,-7.4507,-7.4571,-7.4577,-7.465,-7.4651,-7.4755,-7.4744,-7.4742,-7.4741,-7.4807,-7.4801,-7.502,-7.5049,-7.4858,-7.486,-7.4861,0,-7.4166,-7.4228,-7.4277,-7.4316,-7.4342,-7.4404,-7.4442,-7.4444,-7.4484,-7.4536,-7.4582,-7.4645,-7.4695,-7.4798,-7.4816,-7.4872,-7.4863,-7.4936,-7.4871,-7.4873,-7.4865,-7.4862,-7.4869,-7.4949,-7.4951,-7.4953,-7.4954,0,-7.4331,-7.4335,-7.4392,-7.4452,-7.4499,-7.4546,-7.4589,-7.4622,-7.4628,-7.4674,-7.4741,-7.478,-7.4857,-7.4919,-7.4975,-7.4996,-7.4976,-7.4974,-7.4993,-7.4997,-7.4994,-7.4998,-7.4778,-7.4969,-7.4968,-7.4967,-7.4966,-7.4965,-7.4449,-7.4503,-7.4547,-7.4611,-7.4645,-7.4687,-7.4739,-7.4758,-7.4815,-7.4879,-7.4876,-7.495,-7.4988,-7.5062,-7.5087,-7.5144,-7.5119,-7.5145,-7.5152,-7.5159,-7.5167,-7.4985,-7.5153,-7.5153,-7.5152,-7.5152,-7.5152,0,-7.4613,-7.4641,-7.47,-7.4764,-7.4815,-7.4794,-7.4842,-7.4885,-7.4951,-7.499,-7.5041,-7.5118,-7.5179,-7.5202,-7.5261,-7.5302,-7.5295,-7.5317,-7.5315,-7.532,-7.5185,-7.5164,-7.5323,-7.5323,-7.5323,-7.5322,-7.5322,-7.5322,-7.4705,-7.4797,-7.4806,-7.4914,-7.494,-7.5014,-7.5043,-7.5081,-7.5113,-7.5201,-7.5253,-7.5268,-7.5301,-7.5362,-7.5417,-7.5422,-7.5445,-7.5472,-7.5473,-7.5346,-7.5329,-7.5313,-7.5293,-7.5477,-7.5477,-7.5604,-7.5605,-7.5606]}]]